Regional Weather Roundup
Issued by NWS

Home | Current Version | Previous Version | Text Only | Print | Product List | Glossary On
Versions: 1 2 3 4 5 6 7 8 9 10 11 12 13 14 15 16 17 18 19 20 21 22 23 24 25 26 27 28 29 30 31 32 33 34 35 36 37 38 39 40 41 42 43 44 45 46 47 48 49 50
000
ASUS45 KSLC 301310
RWRUT

UTAH REGIONAL WEATHER ROUNDUP
NATIONAL WEATHER SERVICE SALT LAKE CITY UT
700 AM MDT TUE MAY 30 2017

UTZ001>011-023>025-301400-

NORTHERN UTAH

CITY           SKY/WX    TMP DP  RH WIND       PRES   REMARKS
BRIGHAM CITY   CLEAR     54  40  59 CALM      30.08S
DUGWAY         PTCLDY    45  30  55 SE2       30.07
HILL AFB       CLEAR     55  36  48 E18G26    30.09S
LOGAN          CLEAR     49  42  77 CALM      30.12R
OGDEN          CLEAR     56  38  50 S8        30.07S
SALT LAKE CITY CLEAR     63  41  44 S8        30.06S
TOOELE VALLEY  CLEAR     57  37  47 S8        30.07S
WENDOVER       PTCLDY    55  35  47 CALM      30.07R
HEBER CITY     CLEAR     43  37  81 CALM      30.19R
WEST JORDAN    CLEAR     58  45  60 CALM      30.09S

$$

UTZ011>015-024>027-301400-

CENTRAL/NORTHEAST UTAH

CITY           SKY/WX    TMP DP  RH WIND       PRES   REMARKS
PROVO AIRPORT  CLEAR     56  40  55 SW3       30.11S
MOAB/CANYONLAN SUNNY     61  29  29 S3        30.08R
DELTA          PTCLDY    45  32  61 CALM      30.10R
PRICE          CLEAR     59  32  36 N6        30.17R
ROOSEVELT      SUNNY     48  37  66 W6        30.20S
VERNAL         SUNNY     56  36  47 NW5       30.18R

$$

UTZ013>016-019>022-027-301400-

SOUTHERN UTAH

CITY           SKY/WX    TMP DP  RH WIND       PRES   REMARKS
BRYCE CANYON   PTCLDY    41  27  57 CALM      30.27R
CEDAR CITY     MOCLDY    50  29  44 S3        30.11S
MILFORD        PTCLDY    48  27  44 W3        30.09S
ST GEORGE      SUNNY     67  26  21 CALM      29.94R
HANKSVILLE     CLEAR     52  14  22 CALM      30.11S
BLANDING       MOSUNNY   52  32  46 CALM      30.26R

$$

REGIONAL REPORTS     COLORADO/ARIZONA

CITY           SKY/WX    TMP DP  RH WIND       PRES   REMARKS
CRAIG, CO      SUNNY     40  36  86 CALM      30.25S
GRAND JUNCTION SUNNY     58  34  40 SE7       30.15R
RIFLE, CO      SUNNY     47  32  56 CALM      30.23R
MONTROSE, CO   SUNNY     48  31  51 SE6       30.23R
CORTEZ, CO     SUNNY     43  34  70 NE3       30.21R
COLORADO CITY    N/A     70  27  19 NE10      30.07R
PAGE, AZ       PTCLDY    64  23  21 E8        30.05R
GRAND CANYON   MOCLDY    44  30  57 CALM      30.18S
KINGMAN, AZ    PTCLDY    65  21  18 S9        29.94R
FLAGSTAFF, AZ  PTCLDY    42  26  53 CALM      30.22R

$$

REGIONAL REPORTS    NEVADA/IDAHO/WYOMING

CITY           SKY/WX    TMP DP  RH WIND       PRES   REMARKS
LAS VEGAS, NV  PTCLDY    75  24  15 W7        29.83R
ELY, NY        PTCLDY    40  25  55 S10       30.18R WCI  33
ELKO, NV       CLEAR     45  38  76 CALM      30.10R
POCATELLO, ID  CLEAR     45  40  82 CALM      30.11S
BURLEY, ID     CLEAR     48  42  80 E3        30.06S
EVANSTON, WY   CLOUDY    47  35  63 E6        30.26S
ROCK SPRINGS,  SUNNY     51  35  54 E3        30.26R
KEMMERER, WY     N/A     45  34  65 N13       30.28S

$$



USA.gov is the U.S. government's official web portal to all federal, state and local government web resources and services.